カタログに戻る

PELICAN-11

運用中科学SSO
NORAD 69871·PAYLOAD·🇺🇸 United States

打ち上げ Jul 7, 2026 から Vandenberg Space Force Base

Loading…

次のパス (今後24時間)

TLE

最新Source: CelesTrak SupGP

元期: Sep 14, 2026, 20:44 UTC

1 69871C 26156C   26257.86442130  .00001496  00000+0  13841-3 0  2577
2 69871  97.7182 157.2092 0004156 356.9311  57.8895 14.94621669    18

AllMySatでPELICAN-11をリアルタイム追跡

Download on the App Store